Fort Knox, KY

11:49 AM EDT on April 23, 2018 (GMT -0400)
Godman Army Air Field

Weather History for KFTK - September, 2013

Change the Weather History Date:

Thursday, September 12, 2013

  Actual Average Record
Temperature  
Mean Temperature 74 °F -  
Max Temperature 82 °F 78 °F 95 °F (1999)
Min Temperature 65 °F 56 °F 50 °F (1997)
Cooling Degree Days 8    
Growing Degree Days 24 (Base 50)    
Moisture  
Dew Point 69 °F    
Average Humidity 85    
Maximum Humidity 100    
Minimum Humidity 67    
Precipitation  
Precipitation 0.01 in - - ()
Sea Level Pressure  
Sea Level Pressure 29.99 in    
Wind  
Wind Speed 6 mph (WSW)    
Max Wind Speed 13 mph    
Max Gust Speed -    
Visibility 10 miles    
Events Rain    
Averages and records for this station are not official NWS values.
T = Trace of Precipitation, MM = Missing Value Source: NWS Daily Summary

Daily Weather History Graph

Daily Weather History Graph

Search for Another Location

Airport or City:

Astronomy

Sep. 12, 2013 Rise Set
Actual Time 7:23 AM EDT 7:56 PM EDT
Civil Twilight 6:56 AM EDT 8:22 PM EDT
Nautical Twilight 6:25 AM EDT 8:53 PM EDT
Astronomical Twilight 5:53 AM EDT 9:25 PM EDT
Moon 2:43 PM EDT (9/12) No Moon Set
Length of Visible Light 13h 25m
Length of Day
12h 32m
Waxing Crescent, 50% of the Moon is Illuminated
Sep 12
Waxing Crescent
Sep 12
First Quarter
Sep 19
Full
Sep 26
Last Quarter
Oct 4
New

Hourly Weather History & Observations

Time (EDT) Temp. Heat Index Dew Point Humidity Pressure Visibility Wind Dir Wind Speed Gust Speed Precip Events Conditions
12:58 AM 70.3 °F - 69.8 °F 98% 30.05 in 10.0 mi SSW 5.8 mph - N/A   Clear
1:58 AM 69.4 °F - 68.9 °F 98% 30.04 in 10.0 mi SSW 5.8 mph - N/A   Clear
2:58 AM 68.5 °F - 68.2 °F 99% 30.04 in 10.0 mi SSW 4.6 mph - N/A   Clear
3:58 AM 67.6 °F - 67.3 °F 99% 30.04 in 10.0 mi SSW 5.8 mph - N/A   Clear
4:58 AM 66.9 °F - 66.9 °F 100% 30.03 in 8.0 mi SSW 3.5 mph - N/A   Clear
5:58 AM 67.3 °F - 67.3 °F 100% 30.02 in 9.0 mi SSW 4.6 mph - N/A   Clear
6:58 AM 67.5 °F - 67.1 °F 99% 30.02 in 10.0 mi SSW 4.6 mph - N/A   Clear
7:58 AM 68.2 °F - 67.8 °F 99% 30.04 in 10.0 mi SW 4.6 mph - N/A   Clear
8:58 AM 72.9 °F - 70.5 °F 92% 30.03 in 10.0 mi SW 5.8 mph - N/A   Clear
9:58 AM 77.0 °F - 72.5 °F 86% 30.02 in 10.0 mi WSW 10.4 mph - N/A   Clear
10:58 AM 79.2 °F - 72.3 °F 79% 30.02 in 10.0 mi West 10.4 mph - N/A   Partly Cloudy
11:58 AM 81.7 °F 86.7 °F 72.7 °F 74% 30.03 in 10.0 mi WNW 10.4 mph - N/A   Scattered Clouds
12:58 PM 82.6 °F 87.1 °F 71.1 °F 68% 30.02 in 10.0 mi North 12.7 mph - N/A   Scattered Clouds
1:43 PM 80.6 °F 83.9 °F 69.8 °F 70% 30.01 in 10.0 mi NNW 9.2 mph - N/A   Mostly Cloudy
1:48 PM 80.6 °F 83.9 °F 69.8 °F 70% 30.01 in 10.0 mi NNW 9.2 mph - N/A   Mostly Cloudy
1:58 PM 79.7 °F - 69.8 °F 72% 30.00 in 10.0 mi NNW 6.9 mph - N/A   Mostly Cloudy
2:21 PM 78.8 °F - 69.8 °F 74% 30.01 in 10.0 mi NNW 8.1 mph - N/A Rain Light Rain
2:58 PM 73.8 °F - 69.8 °F 87% 29.98 in 9.0 mi SW 2.3 mph - 0.01 in Rain Light Rain
2:59 PM 73.4 °F - 69.8 °F 88% 29.98 in 10.0 mi SSW 4.6 mph - N/A   Mostly Cloudy
3:00 PM 73.4 °F - 69.8 °F 88% 29.98 in 10.0 mi SSW 4.6 mph - N/A   Overcast
3:58 PM 80.1 °F 83.2 °F 70.0 °F 71% 29.93 in 10.0 mi West 8.1 mph - 0.00 in   Partly Cloudy
4:58 PM 80.1 °F 82.9 °F 69.1 °F 69% 29.94 in 10.0 mi West 10.4 mph - N/A   Partly Cloudy
5:58 PM 77.4 °F - 65.8 °F 67% 29.92 in 10.0 mi WNW 6.9 mph - N/A   Mostly Cloudy
6:58 PM 76.8 °F - 67.6 °F 73% 29.94 in 10.0 mi WNW 5.8 mph - N/A   Partly Cloudy
7:58 PM 73.4 °F - 68.5 °F 85% 29.94 in 9.0 mi NW 2.3 mph - N/A   Clear
8:58 PM 68.5 °F - 65.7 °F 90% 29.94 in 10.0 mi West 2.3 mph - N/A   Clear
9:58 PM 66.6 °F - 64.9 °F 95% 29.94 in 10.0 mi WSW 3.5 mph - N/A   Clear
10:58 PM 65.8 °F - 64.4 °F 95% 29.94 in 10.0 mi West 5.8 mph - N/A   Clear
11:58 PM 67.5 °F - 64.8 °F 91% 29.94 in 10.0 mi WNW 9.2 mph - N/A   Clear